Location: Banff
(51.1667°N, 115.5667°W)
Time: 11:02:02
(UTC+00:00)

SR - Pass Details

Date: 05 December 2020
Orbit: 575 x 880 km, 66.7° (Epoch: 20 January)

Event Time Altitude Azimuth Distance (km) Brightness Sun altitude
Rises 03:07:19 0° 268° (W) 2,903 ? -31.9°
Reaches altitude 10° 03:10:01 10° 285° (WNW) 2,045 ? -32.4°
Enters shadow 03:12:59 20° 325° (NW) 1,528 ? -32.8°
